Showing default

NETSAT-3, 46505

Orbit data source: Space-Track

NETSAT-3, 46505 is a payload satellite owned by ZfT (DE) in SSO that was launched on Mon, 28 Sep 2020 UTC via a SOYUZ-2-1B launch vehicle from the Plesetsk Missile And Space Complex (PKMTR). Payloads include a variety of satellites, spacecraft, and rockets equipped with specific instruments for various scientific and technological missions. These include communications satellites like Starlink; space stations such as the ISS; scientific satellites like the Hubble; Earth observation satellites from companies like Planet Labs, Umbra, and HawkEye 360; GPS; miniature CubeSats for education and research; and military/defense satellites.

Loading next visibility...
NETSAT-3 details
Identifier
46505, 2020-068V
Orbit
SSO
Last TLE update13 hours ago
Origin
Flag of DEZfT (DE / GER)
ManufacturerZfT
MissionOperational Commercial Technology
Bus & MotorCUBESAT 3U, Unknown motor
Mass4 kg wet, 4 kg dry
Launch date (UTC)
2020-09-28 (4 years ago)
Launch vehicle
SOYUZ-2-1B
Launch site
Plesetsk Missile And Space Complex (PKMTR)
Object type
Payload
Rocket body
Debris
Shape & HBRBox, Unknown HBR
Radar Cross Section0.035 m², Small (<0.1 m²)

Expand to show TLE details & history

TLE from 13 hours ago
0 NETSAT-3
1 46505U 20068V   24339.90052033  .00021617  00000-0  96363-3 0  9996
2 46505  97.8258 301.9103 0009863 129.3725 230.8385 15.21399379230051
Epoch: 2024-12-04T21:36Z
Definitive object data (Epoch: 2024-12-04T21:36:44.956Z)
Latitude-0.00001°
Longitude-96.46605°
Altitude508.989 km
Speed7.607 km/s
True Right ascension20h 07m 38s
True Declination0° 00' 00"
Sunlit
Object was in daylight at TLE epoch
Visualization TLE readout
Latitude79.673°
Longitude132.69971°
Altitude509.03 km
Speed7.62 km/s
Apparent Right ascension19h 51m 34s
Apparent Declination33° 29' 23"
Sunlit
Object is in daylight
Visualization observer readout
Local Sidereal Time08:38:17
Azimuth10.102° NNE
Elevation-15.804°
Doppler factor1
Orbital elements
Apogee altitude505.384 km
Perigee altitude491.819 km
Semi-major axis6,876.738 km
Eccentricity0.0009863
Inclination97.8258°
RAAN301.9103°
Arg. of periapsis129.3725°
True anomaly230.75093°
Mean anomaly230.8385°
Eccentric anomaly230.79471°
Mean motion3.80601 °/min
BSTAR0.00096363
Orbital period94.59 mins
Loading maneuver chart data...
Loading historical data...
Loading historical data...
Loading historical data...
Loading historical data...
Loading historical data...
Loading historical data...
Loading historical data...

NETSAT-3 Visibility forecast

Observer location: undefined°, undefined

Span
Click to sort rows by Start time (UTC) header in descending order
Start Az.
Max El. time (UTC)
Max El. Az.
Max El.
End time (UTC)
End Az.
6 mins2024-12-05 10:47:51.365Z2.994° NNE2024-12-05 10:50:51.365Z291.947° WNW40.499°2024-12-05 10:53:51.365Z207.755° SW
5 mins2024-12-05 21:25:51.365Z144.349° SSE2024-12-05 21:27:51.365Z95.565° ESE37.396°2024-12-05 21:30:51.365Z1.808° NNE
5 mins2024-12-06 10:29:51.365Z20.866° NNE2024-12-06 10:31:51.365Z118.853° SE43.759°2024-12-06 10:34:51.365Z186.875° SSW
|